Location: Mironcillo
(40.5544°N, 4.8245°W)
Time: 13:29:37
(UTC+00:00)

Daily predictions for brighter satellites

Satellite Brightness Start Highest point End
(mag) Time Altitude Azimuth Time Altitude Azimuth Time Altitude Azimuth
Cosmos 2279 Rocket 4.1 17:12:44 10° S 17:18:48 60° E 17:24:54 10° NNE
Meteor 1-28 Rocket 3.0 17:16:40 10° N 17:20:02 83° WNW 17:23:21 10° SSW
Lacrosse 5 rocket 3.0 17:21:10 10° W 17:24:08 22° NNW 17:27:03 10° NNE
IGS 5A 3.3 17:20:23 10° SSE 17:24:19 79° ENE 17:28:17 10° N
Cosmos 1092 Rocket 4.2 17:18:47 10° N 17:24:57 79° W 17:31:04 10° S
SAR-Lupe-4 4.4 17:23:20 10° SE 17:26:26 29° ENE 17:29:34 10° N
MOS 1 Rocket 4.2 17:24:51 10° SE 17:28:59 30° ENE 17:33:19 10° N
COSMO-SKYMED 1 4.4 17:29:45 10° ENE 17:31:18 12° E 17:32:50 10° ESE
Cosmos 1315 Rocket 4.0 17:29:05 10° SSW 17:32:42 42° WNW 17:36:22 10° N
Cosmos 1602 Rocket 4.3 17:29:05 10° NNE 17:33:01 31° ENE 17:36:52 10° SE
Cosmos 1777 Rocket 4.4 17:28:55 10° S 17:33:52 44° ESE 17:38:51 10° NNE
Cosmos 1980 Rocket 4.0 17:34:34 10° ESE 17:36:04 11° E 17:37:35 10° E
CZ-4C R/B 3.6 17:30:16 10° NNW 17:36:27 32° NE 17:43:49 10° ESE
Cosmos 1782 2.5 17:36:16 10° S 17:39:51 82° E 17:43:28 10° N
Cosmos 1570 Rocket 4.0 17:34:43 10° NNW 17:40:03 71° ENE 17:45:20 10° SSE
YAOGAN 1 4.0 17:40:10 10° E 17:42:40 15° ENE 17:45:10 10° NNE
Cosmos 1733 1.2 17:44:15 10° N 17:46:08 65° E 17:48:00 10° SSE
Cosmos 836 Rocket 4.4 17:43:00 10° NNW 17:48:16 75° ENE 17:53:30 10° SSE
Cosmos 1486 Rocket 4.0 17:43:08 10° SSW 17:48:19 80° ESE 17:53:34 10° NNE
Cosmos 405 Rocket 2.6 17:46:58 10° NNW 17:50:12 66° W 17:53:23 10° S
NOSS 2-2 (D) 4.3 17:48:22 10° WSW 17:51:36 33° NW 17:54:27 10° NNE
CENTAUR R/B 4.1 17:48:15 10° W 17:53:05 27° NW 17:58:53 10° NNE
Cosmos 2263 Rocket 3.8 17:50:22 10° NNE 17:53:13 14° NE 17:53:46 14° NE
SJ-12 3.7 17:49:40 10° SSE 17:53:23 61° ENE 17:57:08 10° N
Cosmos 2360 4.2 17:48:20 10° SSW 17:54:02 88° ESE 17:59:48 10° NNE
CORIOLIS 4.3 17:50:51 10° S 17:56:11 78° WSW 18:01:32 10° NNW
IRIDIUM 106 4.3 17:51:04 10° N 17:56:15 61° E 18:01:23 10° SSE
Cosmos 1933 3.7 17:52:48 10° SSE 17:56:20 37° E 17:59:50 10° NNE
Cosmos 2266 Rocket 4.0 17:53:14 10° N 17:59:18 57° E 18:05:14 10° SSE
SL-16 R/B 3.9 17:55:10 10° N 18:00:50 38° WNW 18:06:27 10° SW
NOSS 2-2 (E) 4.2 17:57:39 10° WSW 18:00:55 34° NW 18:03:40 11° NNE
Cosmos 1607 4.2 17:55:05 10° NNW 18:01:04 46° NE 18:07:05 10° SE
Cosmos 2227 Rocket 3.1 17:58:08 10° N 18:02:49 26° NE 18:06:42 13° ESE
Cosmos 773 Rocket 3.9 18:00:32 10° NNW 18:05:46 84° ENE 18:11:01 10° SSE
ARIANE 5 R/B 2.5 18:00:57 10° SSE 18:05:58 86° WSW 18:11:05 10° NNW
Cosmos 2098 Rocket 3.5 18:03:34 10° SSW 18:07:13 57° W 18:11:33 10° N
Cosmos 1825 Rocket 4.1 18:03:22 10° N 18:07:22 35° ENE 18:11:20 10° SE
BREEZE M DEB (TANK) 2.9 18:06:08 10° W 18:08:31 32° NNW 18:09:12 25° NNE
Cosmos 1758 Rocket 4.0 18:04:20 10° NNW 18:08:35 62° W 18:12:47 10° S
SPOT 1/Viking Rocket 3.8 18:04:10 10° SE 18:09:07 47° ENE 18:14:05 10° N
EXPRESS MD2 4.4 18:09:53 10° S 18:11:40 17° SE 18:11:40 17° SE
BREEZE-M DEB (TANK) 2.4 18:11:52 10° W 18:13:20 25° NNW 18:13:35 24° N
Cosmos 2208 Rocket 4.1 18:08:48 10° NNW 18:13:59 81° WSW 18:19:09 10° SSE
Cosmos 990 Rocket 4.1 18:11:34 10° S 18:16:30 52° ESE 18:20:06 18° NE
Cosmos 1697 Rocket 2.7 18:12:03 10° S 18:17:33 63° ESE 18:21:56 17° NNE
AQUARIUS 4.1 18:13:18 10° S 18:17:42 83° W 18:22:08 10° NNW
USA 290 2.0 18:19:33 10° NNW 18:22:49 78° ENE 18:26:03 10° SSE
Gbstr 26 Del rocket 2.6 18:20:07 10° SW 18:24:12 76° SE 18:25:30 39° ENE
Helios 1A Rocket 3.4 18:25:10 29° SE 18:25:10 29° SE 18:27:32 10° SSE
CZ-2D R/B 4.2 18:22:27 10° S 18:25:24 38° W 18:28:22 10° NNW
Meteor 1-20 Rocket 4.2 18:22:05 10° N 18:27:34 83° W 18:33:01 10° S
Cosmos 1606 Rocket 3.7 18:32:55 10° SSW 18:37:17 74° W 18:41:43 10° N
Cosmos 2151 4.1 18:36:43 10° NNW 18:40:41 44° W 18:44:38 10° SSW
NOSS 2-3 (E) 2.9 18:37:44 10° SSW 18:41:28 70° ESE 18:41:41 68° E
Cosmos 783 Rocket 4.4 18:36:30 10° NNW 18:41:50 80° ENE 18:47:07 10° SSE
BlueWalker 3 1.7 18:38:24 10° NW 18:42:02 83° SW 18:42:35 62° SE
ATLAS CENTAUR R/B 1.2 18:40:03 10° NW 18:43:12 56° WSW 18:44:08 37° S
Resurs 1-3 3.4 18:40:13 10° SSE 18:44:28 68° ENE 18:48:45 10° N
NOSS 2-3 (D) 3.0 18:40:58 10° SSW 18:44:43 70° ESE 18:44:44 70° ESE
NOSS 3-2 (C) 3.8 18:41:35 10° WSW 18:46:21 47° NW 18:50:02 20° NNE
Cosmos 1076 Rocket 3.4 18:43:24 10° N 18:47:40 62° E 18:51:56 10° SSE
Cosmos 1461 3.8 18:44:30 10° WSW 18:48:08 39° NW 18:49:36 28° N
Okean 1-7 Rocket 4.3 18:45:44 10° NNW 18:50:00 52° W 18:54:14 10° S
Cosmos 1655 Rocket 3.8 18:44:12 10° N 18:50:27 77° E 18:56:39 10° S
OceanSat 1 rocket 4.5 18:48:05 10° SSE 18:52:48 66° ENE 18:57:29 10° N
Meteor 2-20 4.3 18:48:45 10° S 18:54:54 85° E 19:01:06 10° N
Cosmos 2297 Rocket 3.0 18:50:39 10° NNW 18:56:09 52° WSW 19:01:36 10° S
Spot 4 Rocket 4.1 18:58:15 10° S 19:03:20 75° WSW 19:08:28 10° NNW
Cosmos 1726 Rocket 4.4 18:59:23 10° SSW 19:03:54 53° W 19:07:22 17° N
COSMO-SKYMED 1 3.1 19:05:32 35° NNW 19:06:55 53° WNW 19:10:54 10° SSW
Meteor 1-5 Rocket 4.3 19:07:08 10° NNW 19:12:26 69° W 19:17:50 10° S
SL-19 R/B 4.3 19:09:34 10° S 19:14:49 72° WSW 19:20:19 10° NNW
Cosmos 2084 Rocket 4.5 19:11:06 10° NW 19:13:46 38° NW 19:13:46 38° NW
DMSP B5D1-3 4.5 19:17:42 73° S 19:17:42 73° S 19:22:15 10° SSW
Meteor 2-20 Rocket 4.4 19:11:05 10° S 19:17:26 90° E 19:20:29 33° N
Cosmos 1898 Rocket 4.2 19:13:00 10° S 19:16:20 40° S 19:16:20 40° S
YAOGAN 1 3.5 19:14:01 10° S 19:18:06 47° W 19:22:13 10° NNW
Cosmos 1980 Rocket 2.0 19:13:29 10° SSW 19:19:09 89° ESE 19:19:32 79° NNE
Meteor 2-2 Rocket 4.1 19:16:21 10° S 19:22:01 86° ESE 19:22:01 86° ESE
Cosmos 1867 3.6 19:18:58 10° NW 19:24:25 76° WSW 19:24:45 73° SSW
CZ-4C R/B 3.2 19:17:56 10° NW 19:25:22 74° WSW 19:34:17 10° SSE
Cosmos 2263 Rocket 3.3 19:32:19 10° NNW 19:35:29 35° NNW 19:35:29 35° NNW
USA 238 DEB 3.7 19:39:45 10° SW 19:45:43 63° NW 19:45:50 63° NW
USA 238 3.7 19:39:50 10° SW 19:45:49 64° NW 19:45:55 64° NW
Cosmos 2227 Rocket 3.1 19:41:41 10° NW 19:47:03 46° WSW 19:48:42 36° SSW
USA 215 4.3 19:51:47 33° N 19:51:47 33° N 19:55:50 10° NW
BREEZE-M DEB (TANK) 4.2 19:50:01 10° NW 19:54:57 77° NNE 19:55:13 77° NE
Cosmos 1553 Rocket 4.5 19:53:15 10° SSW 19:58:54 55° W 19:58:54 55° W
